Theta_e
320 317 318 319 321 321 320 320 304 310 308 299 299 302 299 309 312 310 311 315 311 317 320 321 321 322 318 316 315 315 315 313 313 309 306 320 332 331 332 337 340 341 340 340 341 341 342 342 344 345 344 344 345 346 345 345 344 345 345 345 345 344 344 344 344 343 340 339 340 339 339 338 339 339 338 338 337 337 337 337 337 338 337 336 335 335 335 335 335 336 336 338 340 340 339 337 336
315 314 317 320 319 323 316 319 308 302 301 298 300 303 303 309 313 311 312 313 314 317 321 322 322 322 322 321 320 318 314 314 316 316 324 324 326 330 328 337 341 339 340 342 343 342 342 344 345 345 344 344 345 345 345 345 345 344 344 345 343 344 344 344 342 341 341 341 341 341 340 340 339 339 339 339 338 338 338 337 337 338 338 337 336 336 336 336 335 334 334 334 334 336 336 337 335
315 314 317 321 321 319 316 318 302 301 294 293 300 301 309 310 311 313 314 316 318 320 321 320 318 319 319 319 313 314 308 318 315 316 321 322 318 321 328 336 339 340 340 343 343 343 342 343 346 346 344 345 345 345 345 345 344 345 344 343 344 344 344 343 342 342 342 342 342 341 341 340 340 339 338 338 338 338 337 337 337 337 337 337 336 336 335 335 335 334 334 334 334 334 333 333 334
320 318 316 318 315 322 311 311 305 301 294 296 297 305 311 310 310 313 317 318 319 321 321 316 314 316 315 309 311 317 310 310 316 314 314 317 318 324 329 337 340 340 342 343 343 344 343 345 345 346 344 345 346 346 345 344 344 344 344 344 344 344 343 343 343 342 342 341 341 341 340 340 340 340 339 339 339 339 338 338 337 336 336 336 336 336 336 335 335 334 335 333 333 333 333 333 332
318 318 318 316 317 312 313 309 305 303 296 299 298 309 311 311 310 311 313 317 320 319 318 317 313 315 314 311 312 307 305 312 315 317 314 319 323 325 329 337 337 340 340 342 341 342 342 343 344 344 344 344 345 345 345 344 345 344 343 344 344 343 343 343 342 341 341 341 341 340 340 340 340 340 339 339 339 339 339 338 338 337 337 337 336 336 335 335 335 334 334 333 333 334 333 332 332
311 313 323 321 313 319 314 306 303 303 303 305 305 307 310 311 310 313 316 319 319 319 318 316 314 312 308 309 311 306 310 305 313 315 316 317 321 326 327 334 337 336 341 338 339 340 342 342 342 343 343 343 345 345 344 344 344 343 343 343 343 342 342 342 342 341 341 341 340 340 340 340 339 339 339 339 339 338 337 337 336 336 336 336 336 336 336 335 335 334 334 334 334 334 333 333 332
312 318 319 320 317 320 305 303 303 304 303 310 307 309 311 313 314 315 315 316 317 317 318 313 314 313 308 310 312 313 314 315 314 315 318 318 321 325 327 329 332 333 339 340 340 340 340 340 341 341 342 343 345 344 344 343 343 343 342 342 342 342 342 341 341 340 340 339 339 339 339 339 339 338 338 338 338 339 338 339 339 338 338 338 338 337 337 337 338 338 337 336 335 335 335 334 333
318 315 317 310 310 310 303 304 304 304 305 311 312 311 313 314 316 316 315 314 313 314 316 317 316 311 308 317 307 315 314 315 318 318 319 319 320 323 325 326 327 329 335 338 338 338 341 339 340 340 342 342 344 344 343 343 342 342 342 342 342 342 342 341 341 340 340 342 341 341 340 340 339 340 339 340 340 339 339 339 339 339 339 339 338 337 337 337 338 338 338 337 337 336 337 337 336
315 313 321 313 304 309 303 303 305 307 307 309 312 315 317 315 316 314 313 314 315 316 315 315 315 309 309 309 307 313 312 314 317 316 316 318 318 322 323 324 325 328 336 337 337 338 338 338 339 340 341 342 342 342 342 342 342 342 341 342 342 342 342 342 341 341 341 341 341 340 340 340 339 339 339 338 339 339 338 338 338 339 340 339 339 338 338 338 337 337 337 336 336 336 336 336 336
314 314 309 309 309 301 302 304 302 304 305 308 308 311 314 316 315 316 314 312 313 313 313 316 316 310 312 308 309 310 310 313 313 313 313 317 320 321 321 323 326 330 335 337 337 336 336 337 336 337 338 340 341 341 341 341 341 341 341 341 342 342 341 340 340 340 339 339 339 339 338 338 338 338 337 337 337 337 337 338 338 338 338 338 338 337 336 336 336 336 337 337 337 337 336 336 336
305 311 316 305 301 300 299 301 304 306 306 308 308 314 316 316 315 313 313 311 313 309 308 315 311 309 309 306 307 315 315 312 310 308 311 316 320 320 320 322 324 328 330 333 336 337 337 337 336 334 334 335 336 338 339 340 340 341 340 341 341 340 340 339 338 338 338 338 338 338 338 337 337 336 336 335 335 335 336 336 336 337 337 336 335 335 335 335 334 334 334 334 334 333 333 333 334
302 304 309 301 298 299 301 302 304 306 309 310 309 314 315 315 315 311 311 308 309 308 305 307 310 313 308 307 307 312 313 310 308 309 311 315 320 320 320 319 320 322 326 327 331 334 336 337 337 336 333 332 332 333 334 336 336 337 338 339 339 338 337 337 336 336 336 336 336 336 337 337 336 336 335 334 333 332 333 333 334 336 337 336 335 335 335 335 334 334 334 334 333 333 333 332 333
308 306 302 302 301 301 303 303 303 305 305 307 309 314 316 314 313 313 311 310 308 305 304 304 316 315 306 305 310 313 309 309 309 309 311 312 321 322 320 318 318 317 319 323 325 327 332 335 335 335 334 333 331 330 330 331 333 333 334 335 335 335 335 335 335 335 335 335 335 335 336 336 335 335 334 333 331 331 331 330 331 333 336 336 336 335 336 336 336 336 336 335 334 334 332 332 334
309 308 304 300 304 302 303 306 304 302 301 306 309 308 310 312 312 310 307 301 301 303 303 304 313 311 306 309 309 308 307 308 308 310 309 311 321 322 319 317 316 315 317 319 320 322 324 329 333 334 333 333 331 329 327 327 327 328 328 329 329 330 330 330 329 330 331 331 332 333 335 336 335 335 334 333 331 330 329 328 329 331 334 334 334 335 336 335 335 335 335 335 335 335 335 333 334
307 312 304 302 299 300 303 302 303 303 299 306 308 309 307 308 310 309 306 300 298 303 310 306 302 307 304 308 303 301 303 305 306 308 308 311 319 318 318 318 315 314 313 314 316 317 317 321 325 326 329 329 329 327 324 324 325 324 324 324 324 324 324 325 325 325 326 328 329 331 333 335 334 333 331 332 330 329 329 327 328 329 332 333 332 333 334 334 334 334 334 334 335 334 334 334 334
311 310 307 299 297 298 300 305 306 302 300 306 307 306 304 306 308 305 304 304 300 302 302 297 302 299 299 298 297 300 303 304 306 307 308 314 318 316 316 314 312 311 310 309 311 314 315 315 318 321 323 325 325 324 323 322 325 325 324 324 323 324 324 324 324 324 324 323 324 327 331 331 332 328 329 326 331 329 327 325 327 329 330 328 328 330 333 333 333 333 333 334 334 334 335 335 334
312 313 301 298 295 298 299 303 305 299 303 305 308 307 302 301 305 305 307 306 299 298 298 298 296 300 296 296 299 301 302 304 309 310 312 316 314 312 311 311 311 310 310 308 308 310 312 313 314 316 318 320 321 321 322 322 322 322 320 320 320 321 322 321 321 319 319 319 319 323 325 324 324 323 323 322 327 327 324 323 324 326 328 324 324 329 329 331 327 329 330 331 331 333 334 334 333
310 303 302 297 298 297 303 303 307 306 303 304 306 306 303 300 304 305 307 303 301 301 300 300 300 298 299 299 301 302 303 306 310 311 310 309 309 308 308 308 308 306 307 307 307 308 309 311 312 313 314 316 317 319 319 318 317 317 315 315 316 316 318 318 315 314 316 314 317 317 318 319 320 320 321 324 321 322 321 321 321 322 323 320 322 323 325 323 325 324 326 325 326 325 329 328 323
301 300 300 297 299 305 309 308 306 305 303 306 306 307 305 303 306 307 301 299 300 299 299 300 299 298 299 299 300 301 302 305 307 307 306 306 306 305 306 307 306 305 305 305 305 306 308 309 312 312 312 314 315 315 315 314 312 311 311 312 314 315 315 314 312 312 310 311 312 313 315 315 318 318 317 320 320 318 317 318 319 318 319 319 320 319 320 321 320 320 321 318 318 319 316 312 309
302 299 294 296 308 309 310 310 308 308 308 305 306 307 307 307 305 304 297 294 294 290 292 295 294 294 295 296 299 300 301 303 304 304 304 303 304 304 304 305 304 304 304 305 305 306 307 308 310 311 311 311 312 312 313 311 310 309 308 308 308 309 310 310 309 309 308 308 309 309 311 313 315 313 318 317 317 312 311 314 315 314 314 314 317 315 316 319 317 318 318 313 314 311 309 307 306
301 297 293 298 308 306 308 310 309 309 309 306 305 305 303 305 304 302 298 295 292 291 292 291 291 293 294 296 298 300 299 300 301 302 302 302 303 303 304 305 304 304 304 305 305 304 306 307 308 309 310 309 309 310 310 310 309 307 306 305 305 306 306 306 306 306 306 306 306 307 309 310 311 309 309 308 308 307 306 307 306 305 305 305 312 307 308 309 309 308 307 305 303 304 304 303 302
299 298 306 309 309 306 309 309 309 308 307 304 300 296 294 297 296 300 301 295 289 291 292 293 293 294 293 295 298 299 299 298 299 300 300 301 301 302 303 304 305 304 305 303 303 303 304 306 307 308 308 307 307 307 307 308 306 305 304 304 303 303 304 303 303 304 304 304 305 305 306 306 306 306 306 305 304 304 303 303 303 302 302 302 305 304 305 305 304 303 303 300 300 301 301 301 300
293 303 306 309 308 303 305 305 306 306 303 301 299 298 297 294 292 293 291 289 290 294 294 294 294 295 295 297 298 298 298 298 298 298 299 299 300 301 302 302 302 302 303 302 302 302 303 303 304 305 304 305 305 305 305 304 303 303 303 303 302 301 302 301 301 302 302 303 303 303 304 303 303 303 302 302 301 301 300 300 300 299 299 299 301 301 302 302 301 301 301 300 299 299 299 300 299
300 300 305 305 306 304 306 304 303 302 300 298 300 301 296 295 290 292 290 292 293 294 294 294 295 296 296 295 297 298 298 298 298 299 300 299 300 300 301 301 302 302 302 301 302 302 302 301 302 302 303 303 302 303 302 301 301 301 302 302 300 302 301 299 300 300 301 300 302 302 303 301 300 300 300 299 299 299 299 299 298 298 298 298 299 299 299 299 298 299 299 299 297 297 298 298 298
301 301 304 305 306 304 303 303 302 301 299 300 298 295 294 294 292 292 290 292 294 294 295 295 295 295 296 295 295 297 298 298 298 299 300 300 301 302 302 301 301 301 300 300 301 301 301 302 301 301 301 302 301 301 300 300 300 300 300 299 299 303 298 298 299 299 298 299 300 301 301 299 299 299 299 298 298 298 298 298 297 297 297 296 297 297 297 297 296 296 296 297 297 296 296 296 297
304 303 303 302 301 302 302 301 300 299 299 299 295 293 294 295 296 290 292 293 294 295 295 295 294 294 294 295 295 296 297 297 299 298 298 299 300 299 299 300 300 299 299 300 300 300 301 301 300 300 301 301 301 300 299 298 298 298 298 298 298 300 298 298 298 297 297 298 298 300 300 300 298 298 298 298 296 297 297 296 296 296 295 296 296 296 296 296 295 294 294 295 296 294 294 294 295
304 302 301 301 301 301 302 300 300 301 300 300 296 295 295 298 298 288 293 294 295 295 294 295 295 293 293 294 295 296 296 297 297 298 298 298 297 297 298 299 299 299 299 298 299 299 301 300 300 300 300 301 300 299 299 298 298 297 298 297 297 297 298 298 297 297 296 297 298 299 299 299 299 298 298 298 297 296 296 296 295 295 295 295 295 295 296 296 295 294 294 294 294 294 294 294 294
303 302 301 301 301 302 302 301 300 300 297 298 296 293 294 294 292 289 292 295 296 294 294 294 294 293 293 295 294 295 295 296 296 296 295 295 295 296 295 296 297 298 297 297 297 299 299 299 299 300 299 300 299 298 299 298 297 297 298 296 296 297 298 296 295 296 297 296 297 297 297 298 299 297 297 297 297 296 296 296 295 295 294 295 295 295 295 295 295 295 295 295 294 293 293 293 294
302 301 296 298 300 298 301 299 300 299 296 300 300 296 288 289 285 291 293 295 296 295 294 294 294 294 294 294 295 294 294 295 296 295 294 295 295 295 294 295 296 297 297 297 297 298 298 298 299 299 299 298 297 297 297 297 297 297 296 296 297 299 296 296 295 295 295 296 296 296 296 298 297 296 296 296 296 294 294 294 294 295 294 295 295 295 294 293 293 293 293 294 292 293 292 292 294
302 300 297 294 293 292 296 301 300 299 299 303 303 287 286 287 290 292 294 294 294 294 293 293 293 293 294 292 292 293 293 294 294 294 294 294 294 294 294 295 296 296 296 296 297 296 298 299 300 300 300 298 299 297 297 296 296 297 298 295 297 296 294 294 295 295 295 295 295 296 296 296 296 296 296 295 295 294 293 293 293 293 294 294 294 294 292 291 291 291 291 291 293 291 291 291 291
295 297 298 292 291 289 295 299 300 297 302 304 301 285 286 288 290 292 294 294 293 292 292 292 294 294 293 293 293 293 294 292 293 294 297 296 294 294 294 294 295 295 295 296 296 296 297 297 299 298 300 297 297 297 297 297 296 296 295 295 295 296 295 294 293 294 293 294 295 294 296 296 296 296 296 295 294 293 292 292 292 292 294 294 292 292 292 291 291 291 291 290 290 290 290 291 291
297 293 289 293 289 289 293 296 299 295 299 303 300 286 285 288 289 292 294 293 294 291 291 291 292 293 293 293 293 294 295 296 297 295 295 294 295 293 293 293 293 294 294 295 296 297 296 297 297 297 297 297 296 298 296 296 295 295 295 300 295 296 294 294 293 294 294 293 294 294 295 296 295 295 294 294 293 292 292 291 291 292 293 293 292 292 292 291 290 291 291 290 289 289 290 289 290
295 291 290 289 289 288 291 296 298 298 299 301 297 284 287 287 290 292 293 292 293 291 290 290 292 294 293 292 293 293 293 293 294 293 293 294 294 293 292 292 293 293 293 294 294 295 295 296 296 296 295 296 297 296 296 297 296 295 294 295 294 295 294 293 293 294 294 293 292 292 293 295 293 294 294 293 293 292 291 292 291 292 292 292 291 291 290 291 290 291 290 290 289 288 288 288 289
289 292 290 290 287 289 287 293 297 300 298 292 294 290 289 288 289 291 292 293 292 290 290 292 292 292 293 293 293 292 292 292 291 291 294 294 294 294 295 295 294 292 293 293 294 294 294 295 295 295 296 296 296 296 296 295 294 295 295 295 296 294 294 293 293 293 293 292 292 292 293 293 294 293 293 293 292 293 292 291 291 292 292 291 290 290 290 290 290 290 289 289 289 288 287 287 287
287 288 288 287 290 292 289 289 294 298 294 290 287 286 285 287 288 290 291 292 291 290 292 291 292 291 292 293 293 293 292 291 290 290 292 296 296 295 293 293 293 293 292 291 293 294 294 294 295 295 295 294 295 296 296 296 295 294 295 295 294 294 293 293 293 292 293 292 292 293 294 294 294 292 293 293 291 291 290 291 291 291 291 290 290 290 289 290 290 289 288 288 289 288 288 288 288
290 291 290 289 288 289 290 294 296 296 292 290 289 284 284 286 287 289 290 291 290 291 292 292 292 291 292 292 293 292 292 290 291 293 294 294 293 295 293 293 293 292 292 292 293 293 293 294 294 294 294 293 294 295 295 294 294 293 293 294 293 293 292 294 293 292 292 291 294 293 293 292 293 294 292 292 292 291 290 290 290 291 291 290 289 288 288 287 288 288 287 288 287 288 288 288 287
294 293 291 290 289 289 292 293 297 297 292 289 288 287 286 286 287 289 290 291 290 290 290 291 291 291 292 291 292 292 292 290 294 293 294 294 294 293 293 293 292 291 291 291 291 292 291 291 292 292 293 293 293 292 292 292 291 291 292 292 290 291 291 292 293 292 293 292 292 293 293 292 292 292 293 292 290 292 291 290 290 289 290 290 289 288 288 288 289 289 288 288 288 286 286 287 287
293 292 290 286 287 285 290 291 294 295 291 288 289 287 286 286 288 289 290 290 289 291 291 292 292 292 292 292 292 292 291 292 293 292 291 292 291 293 293 293 293 291 290 290 290 291 292 292 291 292 292 292 293 292 292 293 292 292 291 291 290 290 290 289 289 290 291 294 292 292 292 291 291 292 293 291 293 290 290 289 289 289 288 288 290 290 289 291 288 288 288 286 287 286 285 286 287
292 290 287 286 286 289 292 292 294 294 291 287 288 285 285 286 287 289 290 290 292 293 292 292 292 291 291 292 292 292 290 290 289 291 293 290 292 293 292 292 291 291 291 290 291 291 291 291 291 292 291 292 292 293 292 291 292 292 291 290 291 290 291 290 290 292 292 291 291 291 292 291 291 290 291 293 291 291 290 289 289 288 288 290 288 287 287 287 287 287 286 286 285 286 286 288 286
289 287 285 283 287 287 283 290 293 293 290 287 288 286 285 287 288 289 291 292 293 295 293 291 291 291 291 292 291 291 290 289 288 288 288 288 290 289 290 291 291 293 291 290 290 290 291 292 291 291 291 291 291 292 294 292 293 291 291 291 291 289 289 290 290 291 291 291 291 293 292 291 291 290 290 290 291 290 289 289 289 288 288 289 288 286 286 286 286 286 286 287 286 284 284 284 287
287 289 287 286 288 289 287 287 290 291 291 292 289 287 286 287 286 287 289 290 290 290 290 290 290 292 291 292 290 291 289 289 288 288 288 288 288 288 289 290 290 291 291 291 292 290 292 290 290 291 291 292 291 291 291 292 292 291 291 291 290 289 289 288 287 288 290 291 291 290 290 291 292 291 291 290 291 290 289 289 288 289 288 288 289 287 286 286 286 286 287 286 285 285 284 284 285
288 288 288 290 290 288 289 290 289 286 285 292 292 283 284 288 289 288 289 288 288 290 289 289 290 290 289 288 289 290 291 290 289 288 288 288 288 289 289 290 290 290 290 291 291 291 289 290 290 290 291 290 290 291 291 291 290 289 288 287 286 286 285 286 286 286 287 287 287 289 290 290 291 290 290 290 290 291 289 289 289 289 288 289 289 288 287 286 286 286 286 286 285 285 285 284 284
285 286 290 291 290 290 290 290 289 283 282 288 290 282 282 288 288 290 291 289 289 290 289 290 290 291 289 288 289 288 288 288 289 289 289 289 289 289 289 289 289 289 290 291 290 289 289 290 290 290 289 290 292 290 291 292 289 289 288 288 288 287 286 287 287 288 288 288 289 288 288 289 290 290 290 290 290 291 290 290 289 289 289 289 290 288 286 286 287 287 289 286 286 287 286 284 284
283 292 292 291 291 289 290 291 289 285 289 290 290 286 282 282 287 291 293 290 289 290 290 290 291 291 290 289 289 288 288 288 288 288 289 289 289 288 288 289 290 290 290 290 289 289 289 289 289 290 290 292 291 291 290 291 288 287 288 288 290 287 287 287 288 288 289 290 288 288 289 289 289 290 290 290 290 291 291 290 290 290 289 289 289 288 287 287 288 288 288 288 287 287 286 284 284
287 292 293 291 290 291 291 289 286 287 287 283 285 288 280 281 287 291 291 287 288 289 291 291 292 292 291 290 289 289 289 289 289 289 289 289 289 289 289 289 290 290 291 290 289 289 290 289 290 289 289 289 289 290 290 289 291 288 287 287 286 288 288 289 289 289 288 289 288 288 289 289 289 290 290 290 290 290 292 291 290 290 289 289 291 289 288 288 287 287 287 287 286 286 286 286 285
291 295 294 294 294 293 291 289 287 286 285 281 283 285 278 280 284 286 289 287 288 290 292 293 293 294 293 290 289 290 290 289 289 290 290 289 289 289 289 289 290 290 291 292 290 290 290 289 290 289 288 288 289 288 290 288 288 290 287 286 286 287 288 288 287 287 287 287 287 288 288 289 289 289 289 289 290 290 290 291 291 290 290 289 291 289 288 288 288 288 288 287 287 286 286 286 285
295 295 292 291 291 290 291 289 286 283 278 279 282 285 280 277 283 286 285 286 290 291 292 294 295 295 294 291 290 291 290 290 290 289 289 289 290 290 290 289 289 290 291 290 290 290 290 290 289 288 289 288 289 288 288 288 288 288 287 287 286 286 287 287 287 287 287 287 287 287 287 288 288 288 288 289 289 290 289 291 290 289 289 291 291 289 288 288 288 287 287 287 287 286 286 286 286
293 291 289 289 287 289 287 284 285 278 276 278 280 282 284 275 282 287 292 294 293 293 293 294 295 296 294 291 291 292 291 290 290 289 288 289 289 289 289 288 289 289 290 290 290 290 290 290 290 289 289 289 288 288 288 288 288 288 287 287 287 287 287 287 286 286 286 286 286 287 287 287 287 289 288 288 289 289 290 289 290 290 290 289 288 288 288 288 288 288 287 287 287 287 286 287 286
292 291 289 283 280 282 278 281 276 277 273 278 280 283 280 279 284 290 293 293 294 296 294 292 296 297 293 292 291 291 291 290 289 289 289 289 288 288 288 288 289 289 289 289 290 290 291 290 290 289 289 289 289 288 288 287 288 288 288 288 288 289 288 288 287 287 287 287 287 287 287 287 288 288 288 288 288 289 290 289 289 288 288 289 290 289 289 289 288 288 287 287 287 287 286 286 285
290 288 286 282 278 277 275 276 278 273 278 280 279 284 279 283 284 287 288 288 290 290 290 292 291 291 292 292 291 291 290 290 289 289 288 288 288 288 288 289 289 289 289 290 290 290 291 291 290 289 289 289 288 288 288 288 288 288 289 289 289 289 288 288 287 287 287 287 288 287 287 288 288 288 289 289 289 289 290 290 290 289 289 289 290 290 289 289 289 288 288 287 287 287 287 286 286
286 289 285 284 283 278 274 275 271 272 274 278 282 277 277 278 280 287 287 289 289 288 289 289 290 292 291 290 290 291 291 288 288 288 289 289 289 288 289 290 289 289 289 290 290 290 290 289 290 290 289 289 289 289 289 289 289 289 289 289 289 289 288 288 288 289 288 288 288 288 288 289 288 289 289 289 290 290 290 290 290 290 290 290 290 289 290 289 288 288 288 287 287 287 286 287 286
289 289 290 283 280 279 276 276 275 273 274 274 275 277 281 280 286 287 287 286 287 288 288 289 290 291 292 292 291 291 291 290 289 289 289 289 289 289 290 290 290 290 290 289 290 290 289 290 290 290 290 290 290 290 290 290 290 290 290 289 290 290 291 290 289 290 289 289 289 289 289 289 289 289 290 290 290 290 290 290 290 290 290 290 289 289 288 288 287 287 287 287 286 288 287 286 286
285 286 279 280 283 281 274 276 280 278 276 274 280 279 282 284 285 286 286 285 286 287 287 288 289 290 291 291 291 291 291 290 289 289 288 289 288 289 290 290 290 290 290 290 291 290 290 291 290 290 290 290 290 290 290 290 291 290 290 290 290 290 290 289 290 290 290 291 290 290 290 290 290 290 290 291 290 290 290 290 289 289 289 289 288 288 288 287 287 287 286 286 286 286 286 286 286
284 279 280 285 283 278 278 273 274 275 271 271 279 276 279 278 276 283 283 284 285 285 286 288 289 290 290 291 292 292 291 291 291 290 289 289 289 290 290 291 290 291 290 290 291 290 291 291 291 291 290 290 290 290 290 290 290 290 290 290 290 290 291 290 290 290 290 290 290 290 289 289 289 290 290 291 289 289 289 289 288 288 288 288 287 287 287 287 287 286 286 286 286 286 286 286 286
285 282 283 281 277 276 279 276 269 270 269 271 276 278 277 278 278 280 281 282 283 285 286 286 288 288 289 290 291 291 292 292 292 291 291 291 291 292 291 291 291 291 291 291 292 292 291 291 291 291 291 291 290 291 290 290 290 291 292 291 290 290 290 290 290 290 289 289 289 289 289 289 289 289 289 288 288 288 288 288 287 287 287 287 287 287 286 286 286 285 286 286 286 285 285 285 285
285 286 281 279 278 276 276 275 274 275 270 269 270 275 275 282 278 281 281 282 283 284 285 285 286 287 288 289 290 291 292 293 293 293 293 293 293 293 293 293 293 293 293 293 293 293 292 291 291 291 291 290 290 290 290 290 290 290 291 290 290 290 290 290 289 289 289 288 289 289 288 288 288 288 288 288 287 287 287 286 287 286 286 286 286 286 286 286 285 285 285 285 285 285 284 284 284
278 280 277 278 276 276 277 275 273 274 271 271 269 270 274 278 281 281 283 284 285 285 285 286 287 287 288 289 289 290 290 290 291 291 291 292 291 292 292 292 293 293 293 293 292 292 292 292 291 291 291 290 290 290 290 290 290 291 290 289 289 289 289 289 289 289 289 288 288 288 288 288 287 287 287 287 287 286 286 286 286 286 286 285 285 285 286 285 285 285 285 285 284 284 283 283 283
278 277 275 276 275 274 272 271 276 271 273 271 271 268 274 279 282 284 283 285 285 286 286 287 287 287 288 289 289 290 290 289 289 290 289 290 290 290 290 289 290 290 291 291 292 292 291 291 291 291 291 291 291 291 291 291 290 290 290 289 289 289 289 289 288 288 288 288 288 288 287 287 286 287 286 286 286 286 286 286 285 285 285 285 285 285 285 285 284 284 284 284 284 283 282 281 281
Wind_Speed
12 9 9 9 6 5 5 3 3 2 2 5 4 4 3 5 10 10 11 7 9 6 9 11 13 12 12 13 19 17 15 10 8 4 3 3 8 10 16 14 9 5 5 5 5 5 5 1 1 6 13 12 13 13 12 12 12 12 12 12 14 14 14 14 14 14 14 14 14 15 14 14 14 14 14 14 14 13 13 13 13 13 13 14 14 14 14 14 14 13 12 12 12 11 10 9 8
9 10 9 7 4 3 2 4 2 2 3 4 6 4 5 8 10 12 12 11 7 7 9 11 15 18 22 19 14 14 15 13 8 6 4 8 10 4 16 12 5 8 5 4 5 4 4 2 1 11 12 13 13 13 12 12 13 12 13 12 14 14 14 14 14 14 14 14 15 15 15 14 14 14 14 14 13 13 13 13 13 13 12 12 12 13 13 13 13 13 13 12 11 11 10 9 8
9 8 8 6 5 3 5 3 3 3 4 6 1 5 8 12 11 11 14 12 11 10 8 10 12 8 12 12 16 10 4 11 14 13 3 12 14 14 18 13 5 7 5 3 4 3 2 2 4 11 13 13 13 13 13 13 12 13 12 13 14 14 14 14 14 14 14 14 14 14 14 14 14 14 13 13 13 13 13 13 13 13 12 11 12 12 12 12 12 12 12 11 11 11 11 10 10
8 6 5 4 3 2 2 2 4 5 4 3 3 1 11 14 12 12 11 10 6 7 5 9 8 8 11 13 6 11 9 7 12 9 5 10 9 12 14 11 7 3 5 4 6 5 3 6 11 11 13 14 14 13 13 13 13 14 14 14 14 14 14 14 14 13 14 14 14 14 14 14 13 13 13 13 12 12 12 12 13 12 12 12 12 11 11 11 11 11 11 10 11 10 10 10 10
7 4 3 3 2 2 2 2 3 3 3 4 4 9 10 13 14 11 10 4 6 9 9 7 7 9 13 11 8 4 5 8 9 10 7 6 13 12 13 8 5 4 3 6 7 8 9 15 14 13 13 14 15 14 15 15 15 15 14 14 14 14 14 14 14 13 13 13 13 13 13 13 13 12 12 12 12 12 11 12 12 11 11 10 10 10 10 9 9 10 9 9 10 9 9 9 9
7 4 3 2 2 3 2 2 3 2 2 2 6 7 9 10 14 11 10 9 10 13 14 13 7 4 8 7 6 4 7 4 8 7 9 9 12 12 12 10 7 6 1 6 9 8 10 14 12 11 14 15 16 17 17 16 16 15 14 14 14 14 14 14 13 13 13 13 13 13 13 12 12 13 12 12 11 11 9 9 9 9 9 9 10 10 9 9 9 8 9 9 9 9 8 8 8
3 2 2 3 4 2 3 4 1 3 6 5 6 8 10 10 12 12 11 11 14 14 13 11 14 14 10 5 9 6 7 6 3 6 8 8 9 11 10 9 6 9 10 10 10 11 13 14 14 15 15 17 18 18 17 16 16 15 14 14 14 14 13 13 13 13 12 12 12 12 12 12 12 12 12 12 12 12 12 13 12 12 12 12 12 11 11 12 12 12 11 11 9 9 9 8 6
2 1 2 3 2 3 5 4 2 3 6 8 9 11 11 12 10 10 11 10 7 8 9 10 11 16 10 6 6 4 9 8 5 6 9 9 10 13 11 9 9 9 6 13 13 11 16 17 17 18 18 19 19 18 17 16 16 15 14 13 13 14 13 13 13 13 13 13 13 12 12 12 12 12 12 12 12 12 12 12 12 13 13 12 12 11 11 12 12 12 12 11 11 11 11 12 11
2 2 2 3 5 2 5 3 2 5 5 6 10 10 11 10 10 9 11 10 12 11 11 11 9 11 5 10 7 3 7 7 6 8 10 12 12 10 8 12 10 8 10 12 11 11 11 16 15 15 16 17 18 17 16 16 15 14 14 14 14 14 14 13 13 13 13 13 14 14 13 14 13 13 13 13 13 13 13 13 14 14 13 13 13 13 12 12 12 12 12 12 12 12 12 12 11
2 2 2 2 2 6 4 1 3 2 7 6 7 7 5 8 12 10 12 13 14 18 17 17 14 16 11 11 6 5 5 9 8 10 12 11 10 8 12 12 12 8 12 10 10 10 9 14 15 15 14 15 16 15 15 15 16 15 15 14 16 16 16 15 15 14 14 14 13 13 13 13 13 12 12 12 12 12 12 13 13 13 13 13 14 13 13 13 13 13 13 12 12 13 12 13 12
2 4 3 3 5 5 6 5 4 6 6 6 7 5 5 10 11 11 12 14 10 10 10 9 14 11 9 7 5 2 4 9 12 11 10 9 11 12 10 12 12 13 12 11 8 7 8 10 18 19 19 20 19 18 18 19 18 17 17 17 17 17 17 16 16 15 14 13 13 12 12 12 12 12 12 12 13 13 13 13 12 12 13 13 13 13 13 13 12 11 11 11 11 11 12 11 11
3 3 3 3 5 5 6 7 7 7 8 5 6 5 3 11 12 12 11 12 10 12 11 11 7 11 12 5 4 4 7 11 10 8 9 5 8 10 9 8 13 14 14 12 11 9 9 9 9 14 16 17 18 18 18 18 19 20 19 18 17 17 16 15 14 14 14 13 12 11 10 10 10 10 11 11 14 14 14 14 14 13 13 13 13 12 12 12 12 11 11 11 11 11 12 12 10
2 4 5 3 4 6 3 9 8 10 6 4 5 2 9 7 12 13 12 13 12 11 10 16 8 7 5 4 2 4 9 9 9 8 8 5 5 7 8 10 12 14 13 11 13 12 11 9 9 9 11 15 16 18 18 17 17 16 15 15 16 16 16 15 14 14 13 12 11 10 8 7 8 8 9 11 13 14 14 14 14 14 14 14 14 13 13 13 13 13 13 13 13 12 12 12 10
2 3 3 4 5 6 4 3 11 9 4 5 4 12 11 6 10 14 12 14 13 10 7 12 10 17 10 6 3 5 6 10 10 9 7 6 3 5 10 9 12 14 12 12 12 12 12 10 8 7 8 9 9 11 14 16 16 17 16 16 15 15 14 13 13 13 12 12 11 10 9 6 6 7 10 10 11 12 13 12 13 14 13 14 14 13 13 13 13 14 14 14 14 15 15 14 11
2 3 3 3 4 5 3 9 11 8 5 4 4 5 11 12 12 13 12 13 12 10 3 13 8 5 2 4 2 3 7 12 11 10 8 5 2 6 8 9 11 11 11 11 11 12 10 9 9 9 9 8 8 7 7 9 15 14 15 14 14 14 13 13 12 13 12 11 11 9 10 11 1 11 12 9 9 11 12 11 11 11 13 14 15 13 13 13 14 13 13 13 13 14 15 16 14
2 2 2 4 6 5 5 10 8 9 6 7 8 12 18 15 11 12 10 8 7 11 15 8 13 6 4 9 3 6 11 12 11 9 6 2 2 6 8 9 9 9 9 10 10 9 9 9 7 8 8 9 8 7 7 7 9 11 12 12 11 11 12 12 13 13 13 13 15 13 11 9 6 10 14 11 7 7 9 9 9 10 12 15 17 15 12 12 13 15 15 14 16 16 16 15 15
1 1 2 2 5 6 5 6 11 7 10 8 8 6 11 11 12 16 13 13 17 12 16 12 10 9 14 6 3 6 10 11 10 9 3 2 5 6 7 7 7 8 7 9 9 8 8 9 9 7 7 8 8 7 6 6 7 10 9 11 13 13 13 14 14 13 13 12 13 11 11 9 7 7 8 8 8 5 9 11 12 10 11 16 18 16 17 12 16 17 18 17 16 17 15 15 12
1 2 2 3 3 6 3 3 7 15 15 11 9 11 15 13 10 9 12 17 15 15 16 11 14 15 11 6 5 6 10 5 5 7 7 7 4 5 7 7 7 8 8 7 9 8 7 7 7 8 6 7 7 6 5 6 7 9 7 7 8 9 10 11 9 10 11 8 11 9 7 7 6 6 6 8 6 9 8 12 12 13 13 16 16 17 17 18 17 18 18 19 19 19 16 8 9
4 1 2 2 4 3 2 9 20 16 14 13 12 10 12 12 11 7 12 10 10 15 13 11 12 12 11 11 10 8 7 8 7 9 9 8 8 10 7 6 8 8 8 7 7 9 8 7 8 9 9 6 6 7 6 6 8 8 8 8 6 9 8 9 8 9 9 9 9 8 6 6 5 6 7 9 8 10 10 12 12 13 13 15 15 16 15 15 16 16 17 18 18 16 10 8 8
3 2 2 0 5 5 11 12 9 18 20 18 15 11 12 9 9 8 10 12 14 13 6 9 11 8 10 9 9 8 8 9 10 9 11 11 10 9 9 8 8 8 7 7 6 6 8 8 7 7 8 8 6 6 5 7 7 7 7 7 7 7 7 7 8 7 8 9 8 8 6 6 6 6 9 13 10 7 8 10 12 12 13 13 15 9 12 11 15 13 14 15 9 6 7 7 8
3 2 2 3 1 8 11 14 15 16 18 17 15 13 14 9 8 9 12 17 11 8 9 8 6 7 7 7 7 6 9 11 11 11 12 12 10 8 8 8 7 6 5 5 6 8 8 8 7 7 7 7 6 6 6 7 6 6 6 7 7 7 7 7 7 7 7 8 8 7 7 7 7 7 6 6 7 7 7 7 7 7 7 7 11 7 8 7 8 8 7 8 7 7 7 7 8
5 0 3 6 8 12 11 13 14 15 14 18 14 14 8 7 15 9 6 12 5 4 6 7 6 5 6 7 6 6 9 10 10 11 12 11 10 9 8 7 7 6 5 6 7 8 9 8 8 7 7 7 7 6 6 7 7 6 6 7 6 6 6 6 6 6 6 8 7 8 6 7 6 6 6 7 7 7 7 7 7 7 7 7 8 6 7 7 6 6 7 7 7 7 7 6 7
6 3 1 9 8 15 9 13 13 14 13 14 13 9 10 14 13 12 18 13 7 7 6 6 5 5 5 5 5 8 9 9 9 10 9 9 8 9 8 7 6 6 5 7 6 7 7 8 8 7 7 6 7 7 6 6 6 5 5 6 6 6 5 6 6 6 7 7 7 7 6 6 6 6 6 7 7 7 7 7 7 7 7 7 8 7 8 7 7 7 7 7 7 7 7 6 8
1 4 10 11 12 15 11 13 13 13 17 16 13 14 13 12 16 7 16 9 8 7 5 5 6 5 6 6 7 9 8 8 8 8 7 7 6 6 6 7 6 5 5 6 6 6 6 7 7 6 6 6 5 5 6 5 5 5 5 5 6 6 6 6 6 6 6 7 7 7 6 6 6 6 6 6 6 6 7 7 6 7 7 7 7 7 8 7 7 7 7 8 7 8 7 7 8
7 9 8 11 12 13 13 13 15 17 16 15 16 17 12 12 11 9 10 7 7 6 5 5 6 5 6 8 8 8 7 8 8 7 6 5 5 5 5 5 6 5 6 6 4 5 5 6 6 7 6 6 5 5 5 5 5 5 6 6 6 6 6 5 5 5 6 6 7 8 7 6 6 6 6 6 5 6 6 6 6 6 6 6 6 7 7 7 7 7 8 8 7 7 7 7 8
8 11 11 13 14 14 13 14 14 14 11 15 21 17 15 16 16 14 6 6 6 6 5 5 5 5 5 7 8 7 8 8 7 7 6 5 6 7 7 6 5 6 5 5 5 5 5 6 6 7 7 5 5 5 5 5 5 5 6 6 5 5 5 6 5 6 6 6 7 7 7 6 6 6 6 6 6 6 7 6 6 6 6 6 6 7 6 6 7 6 7 8 7 8 7 7 7
13 15 14 15 13 13 10 14 13 11 12 14 20 12 9 7 1 4 5 5 4 6 6 3 4 6 6 6 5 5 6 6 6 4 5 5 5 6 6 5 5 5 5 6 5 5 5 5 6 6 7 6 4 5 5 5 5 5 5 5 5 5 5 5 5 5 5 5 6 6 6 7 6 6 6 7 5 6 6 6 6 6 6 7 6 7 7 6 6 6 6 6 7 7 6 6 6
14 17 17 14 12 12 12 12 13 11 10 13 21 16 11 9 9 5 4 4 4 5 5 4 3 5 5 4 5 5 5 5 5 5 7 8 5 5 6 5 5 5 5 5 4 4 4 5 6 6 6 6 5 5 5 5 5 4 4 4 5 5 4 5 5 5 4 5 6 6 6 7 6 7 6 6 6 5 5 6 6 6 7 7 6 6 8 7 6 7 6 5 6 6 7 6 5
15 19 17 14 13 13 9 8 7 8 12 11 18 15 11 11 3 5 4 2 4 5 5 5 4 3 4 4 3 4 5 5 5 5 6 4 5 5 5 5 5 4 4 4 5 4 4 4 3 5 5 5 5 5 5 4 4 4 4 5 5 4 5 5 6 6 5 5 5 6 6 7 6 6 7 6 7 6 5 6 6 6 6 6 6 5 6 6 6 7 7 6 6 7 7 7 5
12 12 14 11 8 7 8 4 8 8 9 10 3 4 2 5 7 5 3 3 4 5 4 3 3 3 3 2 3 3 3 5 6 4 4 5 5 5 4 4 4 4 3 4 4 5 4 3 4 3 4 5 5 5 4 5 5 4 5 5 5 5 5 5 5 6 5 6 5 6 5 6 6 7 6 7 6 6 6 5 6 6 6 6 6 6 6 6 6 7 7 7 7 7 7 8 7
8 12 8 8 9 3 5 2 8 8 3 2 2 3 3 5 4 5 3 2 4 4 4 4 2 3 3 2 3 3 4 4 4 4 3 4 5 4 4 4 4 5 3 3 4 4 4 4 4 4 4 4 5 6 5 4 4 5 5 6 6 4 4 5 5 5 5 5 6 6 6 5 6 6 6 6 5 5 6 6 5 6 7 6 6 7 6 6 6 7 7 8 7 7 6 7 8
9 9 5 4 8 3 3 9 2 5 3 4 2 8 3 5 4 4 3 1 2 5 4 3 1 1 4 4 4 2 2 5 5 6 7 6 4 3 3 3 3 4 4 4 3 3 3 3 4 4 4 4 4 4 4 5 4 4 4 5 5 4 4 4 4 4 4 5 5 5 5 4 5 5 5 6 5 6 5 6 5 6 7 6 6 6 6 6 6 6 7 7 8 8 8 8 8
7 3 8 8 8 7 7 3 3 5 6 1 1 7 8 3 4 4 3 1 2 4 3 3 2 1 2 3 3 3 4 3 3 5 5 3 2 2 3 3 3 3 3 3 4 4 3 4 4 5 4 4 4 4 4 3 3 3 4 4 3 4 5 4 4 4 4 5 4 5 5 4 4 5 5 5 5 6 6 4 5 5 6 6 6 6 5 6 6 6 6 6 6 8 8 9 9
7 4 7 7 11 10 5 3 5 2 7 8 10 11 6 7 7 5 4 2 0 3 3 4 3 1 2 1 1 2 3 3 3 3 3 2 2 2 2 2 3 3 2 2 3 3 3 3 3 3 3 3 2 3 3 3 2 3 3 2 2 2 3 4 4 4 4 4 4 3 4 4 4 4 5 4 5 5 5 4 4 4 5 6 6 6 6 5 5 5 6 5 6 6 7 8 10
12 8 10 9 8 6 9 7 5 4 12 13 12 13 9 7 5 5 4 2 1 2 3 4 2 3 1 1 2 2 2 3 3 3 2 1 1 2 1 1 1 2 2 2 2 2 3 3 3 3 4 4 3 0 1 2 1 1 2 1 1 2 3 2 3 3 3 3 3 3 3 3 4 4 4 4 4 4 5 5 4 4 4 5 5 6 6 5 4 4 5 6 5 6 6 8 9
7 8 10 11 9 9 7 5 4 9 9 9 8 8 8 7 6 5 4 4 3 2 3 1 0 1 2 2 1 2 1 4 3 2 1 2 1 2 2 1 1 2 2 1 1 2 2 1 1 3 3 4 4 2 3 5 3 2 1 1 0 2 1 1 0 1 1 2 2 3 2 2 2 3 3 3 3 3 4 4 5 4 4 4 4 5 6 6 6 6 5 5 7 5 5 7 8
7 12 13 11 12 10 9 7 8 7 10 9 10 10 8 8 6 6 6 5 2 2 3 2 2 1 1 1 3 2 1 3 2 1 2 0 0 1 1 2 1 1 1 2 3 3 4 3 3 3 3 4 5 5 4 3 4 5 3 3 3 2 1 1 1 1 0 0 0 2 3 1 1 3 2 2 3 3 3 4 4 4 4 4 4 4 5 6 6 5 5 4 6 7 5 5 7
8 14 13 10 9 9 5 7 6 3 4 6 8 11 8 7 5 5 4 5 4 5 4 4 3 3 2 1 2 2 3 3 2 2 2 2 1 0 0 0 2 1 2 2 3 2 2 2 3 3 4 3 3 3 4 3 3 1 1 2 2 3 2 3 2 3 1 1 3 2 3 2 3 3 3 2 3 4 4 4 4 4 4 5 4 5 5 5 6 6 5 5 3 6 5 4 7
13 12 11 11 8 9 7 7 7 8 12 7 7 9 7 5 4 3 4 4 3 5 3 3 4 4 3 3 2 3 4 4 3 2 0 2 3 1 0 0 0 1 1 1 0 2 1 2 3 3 2 2 2 3 3 1 2 2 1 2 2 3 3 3 2 3 2 4 4 3 3 4 4 4 4 3 3 4 4 4 4 5 4 4 5 5 5 6 6 5 5 6 7 3 4 3 6
11 11 11 9 10 9 8 6 7 3 3 8 7 9 5 4 2 2 4 4 1 1 1 2 3 1 3 4 3 4 4 4 4 3 4 4 3 3 3 2 1 0 1 1 0 0 0 1 2 2 1 1 1 1 1 2 2 2 3 4 4 4 4 3 4 5 4 4 5 5 5 4 4 4 4 4 4 4 4 5 5 4 5 4 5 6 6 6 5 6 6 5 5 8 3 4 2
5 9 11 12 10 5 7 9 11 12 8 8 11 7 3 3 2 2 3 3 1 1 2 3 3 3 3 3 3 1 1 4 4 4 3 3 3 4 4 4 2 2 2 0 0 2 0 1 0 0 2 0 0 0 1 3 4 3 4 4 4 4 5 6 4 6 6 5 4 3 5 4 4 5 5 5 5 5 5 5 5 5 5 5 5 6 6 6 6 5 6 5 4 6 9 4 4
8 4 11 12 10 14 12 12 9 4 5 2 2 4 1 4 5 4 3 3 4 3 4 5 5 5 4 4 3 4 4 1 2 4 5 4 5 4 4 3 3 3 3 3 2 1 2 2 1 2 2 2 1 1 0 2 4 4 4 4 4 3 5 4 3 3 3 5 5 4 4 4 5 5 5 6 6 5 6 6 5 5 6 6 6 6 6 6 6 5 5 5 5 4 6 8 7
9 6 8 11 13 13 9 9 8 5 5 4 2 1 3 1 5 6 5 6 5 4 6 6 6 6 6 5 5 5 5 5 4 3 3 4 5 4 4 5 4 4 4 4 3 3 4 3 2 2 3 3 2 1 1 1 4 3 3 3 3 4 5 5 4 4 4 5 4 4 5 5 5 6 6 6 6 6 6 6 6 6 6 6 6 6 6 6 6 5 5 4 5 6 4 8 8
6 7 12 12 14 10 7 7 5 4 4 2 1 0 1 2 5 3 6 5 5 6 7 7 7 6 5 6 6 5 5 6 6 6 5 5 5 5 5 5 5 6 4 4 4 4 5 4 4 4 3 3 2 3 3 3 4 4 4 4 4 5 6 7 5 5 5 4 6 7 6 6 6 6 7 6 7 7 6 6 6 6 6 7 6 6 7 7 6 5 5 6 6 6 6 7 8
9 11 10 12 12 9 6 8 8 6 6 1 1 2 0 2 3 6 5 4 5 9 9 9 9 7 8 8 7 5 6 6 6 6 7 7 6 6 5 5 6 6 5 5 5 5 4 4 4 2 3 4 4 4 4 4 4 4 4 4 5 5 5 6 5 5 5 5 5 6 6 6 7 7 7 8 8 7 7 7 6 6 7 7 7 6 6 6 6 6 7 7 6 6 6 6 6
6 9 8 8 5 4 6 7 8 5 4 3 1 3 1 2 2 6 4 3 6 9 10 8 10 11 9 8 6 6 6 5 6 7 7 6 6 5 5 5 5 5 5 5 5 4 4 3 3 3 5 4 5 5 5 5 5 4 4 5 6 7 6 7 5 6 6 5 6 7 6 7 7 6 7 6 6 6 6 7 7 7 7 7 6 7 6 6 7 7 7 6 6 6 6 6 8
10 8 9 6 4 3 5 6 5 4 3 1 2 2 2 1 6 8 8 8 12 5 3 6 5 6 8 8 7 7 6 6 6 6 5 5 5 6 5 5 5 4 5 5 5 5 4 3 4 5 6 6 6 6 5 5 5 4 5 5 5 7 7 6 7 7 6 6 7 7 7 7 7 7 7 7 6 6 6 6 7 7 7 6 6 6 7 7 7 6 6 5 6 7 8 7 8
6 6 8 7 3 5 5 2 2 2 1 2 1 1 1 1 0 5 8 1 4 4 5 7 8 8 8 7 6 7 6 6 7 6 5 5 5 5 5 5 5 5 5 5 5 4 4 4 4 6 6 6 6 6 5 5 5 5 5 5 6 7 7 6 7 8 7 7 7 8 7 6 7 6 7 7 7 6 6 6 5 5 6 5 6 6 6 5 6 6 6 6 7 8 8 8 8
2 7 7 6 6 3 3 3 2 1 2 1 0 1 0 3 2 3 7 2 3 4 2 4 2 7 8 7 7 8 7 6 7 7 7 7 7 6 6 6 5 5 5 5 5 5 5 6 6 6 7 5 6 5 5 6 5 6 6 7 7 7 7 7 8 8 7 7 7 8 7 7 6 7 6 7 6 7 6 7 6 6 6 5 6 6 6 6 6 6 6 7 8 8 8 8 8
3 6 5 4 6 4 5 3 1 3 1 2 1 2 0 1 1 6 6 4 4 6 3 3 5 5 4 3 5 5 5 6 6 6 6 6 5 5 5 6 5 5 5 5 5 6 6 6 6 6 8 5 5 5 6 6 6 7 7 7 8 7 7 7 7 7 7 7 6 7 7 7 8 8 8 8 7 7 5 5 5 5 5 6 6 7 7 6 6 6 6 8 8 8 8 9 9
1 0 1 2 1 2 6 3 2 2 2 0 1 2 2 2 1 1 3 2 4 4 3 3 3 2 1 1 2 0 5 5 4 4 4 4 4 5 5 4 4 4 4 5 5 6 6 6 6 7 7 6 5 6 6 7 7 7 6 7 7 7 7 7 7 6 6 6 6 7 7 7 7 8 7 7 6 6 6 6 6 6 6 7 6 7 7 6 5 6 6 8 8 7 8 8 8
1 0 1 1 1 1 4 0 3 3 3 2 1 1 1 2 1 1 1 3 1 2 2 2 0 0 0 0 1 0 1 2 2 1 1 2 3 4 4 4 4 4 5 5 5 5 5 6 6 7 7 7 6 6 6 7 7 6 6 6 7 6 6 6 6 5 6 5 6 6 7 7 6 6 6 6 6 6 6 6 6 6 6 7 7 7 7 6 6 7 7 7 9 7 9 10 9
3 0 1 1 2 3 5 1 1 1 2 1 0 2 1 1 0 2 1 1 1 1 1 0 1 1 1 1 1 1 2 2 2 3 3 4 5 5 5 4 5 5 5 5 6 6 6 6 6 6 7 6 6 7 7 6 6 5 6 5 5 5 5 5 6 5 6 5 5 6 6 6 6 6 6 5 7 6 7 6 6 6 6 6 6 6 6 6 6 7 8 9 9 8 8 9 8
1 3 2 1 1 2 1 2 1 0 2 1 1 2 1 1 2 1 3 2 3 2 1 1 0 1 1 1 2 2 2 2 1 3 4 5 5 5 5 5 5 5 5 5 6 5 5 6 6 6 6 6 5 5 4 4 4 4 4 5 5 4 4 5 5 5 5 5 6 6 5 6 6 6 6 5 5 6 6 6 6 6 6 6 6 6 6 7 7 7 8 8 9 8 9 8 8
3 6 1 1 1 1 0 3 1 1 1 0 0 0 3 1 1 0 2 4 4 4 3 2 2 3 4 3 3 3 2 1 1 2 3 2 2 2 3 4 5 5 5 5 5 5 4 4 4 4 5 5 5 4 4 4 4 4 4 5 4 4 4 4 4 4 4 5 5 6 5 6 6 6 6 6 6 6 6 6 5 6 6 7 6 7 7 7 7 8 8 9 8 8 9 10 9
4 1 2 0 2 1 2 0 1 1 2 3 1 1 1 0 1 0 4 5 4 4 4 4 3 4 4 4 4 3 2 0 1 1 1 1 1 1 1 1 2 2 2 3 3 3 3 4 4 5 5 5 4 5 4 5 4 4 4 4 4 4 4 4 4 4 5 5 5 5 5 5 6 5 5 5 5 5 6 6 6 6 7 7 7 7 7 8 8 8 9 9 9 9 10 11 10
6 5 2 2 2 2 1 1 2 1 2 3 3 0 1 1 3 3 5 4 4 3 2 2 3 3 4 3 2 2 1 2 2 3 3 3 4 4 4 4 4 4 3 4 4 4 5 4 4 4 5 5 4 4 4 4 4 4 3 4 4 4 4 4 4 4 4 5 5 5 5 5 4 5 5 5 5 6 6 6 7 7 7 8 8 8 7 8 8 9 9 9 10 10 11 10 10
0 1 2 1 2 2 1 0 0 1 1 1 3 1 0 1 3 2 4 2 4 2 1 2 2 2 2 1 1 0 1 1 2 2 2 3 3 3 4 4 4 4 4 5 4 4 4 4 4 4 4 4 4 4 4 4 3 3 2 4 4 4 4 4 4 4 5 5 5 4 4 4 5 5 5 6 6 5 5 7 7 7 8 8 8 8 8 8 9 10 11 8 9 10 11 11 10
Wind_Direction
312 313 311 303 293 273 298 241 260 172 227 253 255 193 101 110 117 103 113 112 70 49 61 62 53 54 82 97 95 80 41 50 7 10 66 354 317 27 1 356 332 87 113 111 102 110 107 212 105 102 98 101 88 75 74 73 73 74 75 76 78 74 74 77 76 71 67 65 62 59 57 55 54 52 52 52 52 50 47 46 44 41 40 39 37 35 35 33 30 29 28 27 31 33 33 31 32
311 313 303 286 275 292 239 169 285 220 201 266 260 109 130 70 57 72 73 74 81 99 71 64 84 99 104 114 119 96 45 44 35 359 105 2 324 358 349 343 32 98 91 104 120 109 137 128 69 101 97 87 82 79 77 77 73 71 75 78 79 75 75 75 70 66 65 62 59 57 54 52 51 49 49 49 49 48 47 45 44 43 42 39 38 37 38 36 34 33 27 24 24 23 27 25 22
308 312 309 295 244 224 297 283 246 208 210 234 59 115 107 84 84 88 94 97 101 90 88 74 48 42 76 55 42 32 98 34 29 6 32 356 5 340 334 330 36 28 70 75 89 95 91 78 75 93 94 89 82 78 77 76 78 80 78 80 78 78 75 68 66 65 61 59 57 54 52 51 49 49 48 47 46 46 44 42 42 41 40 38 38 36 34 31 29 28 26 26 25 23 19 13 7
291 276 281 319 315 170 270 222 243 291 231 240 114 62 87 100 93 88 89 90 100 86 76 40 48 338 66 48 24 89 47 23 41 7 345 354 2 323 324 340 51 41 34 89 95 81 73 69 72 81 87 87 84 83 82 84 82 82 81 78 79 76 69 66 64 62 59 57 56 53 50 47 46 45 45 43 42 42 41 39 38 37 36 34 34 34 31 27 26 23 22 15 16 17 21 15 10
276 263 246 295 315 229 232 241 269 221 304 321 98 79 93 101 103 98 94 113 86 91 101 128 86 58 78 65 8 38 341 298 23 16 344 340 345 339 331 351 3 47 116 71 82 74 66 67 68 72 81 84 84 85 83 81 79 77 77 78 74 70 67 65 62 60 58 56 54 51 48 45 42 40 38 37 36 36 35 34 32 31 29 26 24 24 24 23 17 16 9 7 6 2 0 5 4
277 265 234 238 252 346 311 272 218 240 343 304 88 93 99 100 106 111 106 92 73 61 66 53 88 106 45 46 25 71 350 27 334 15 347 349 341 345 347 349 24 352 88 115 73 65 62 64 67 73 78 85 86 81 78 78 79 77 75 73 70 67 63 62 60 58 56 53 49 47 45 42 40 38 35 33 30 29 28 29 28 24 17 15 8 9 9 7 4 2 2 356 355 352 348 346 347
305 287 203 190 267 243 263 247 273 348 339 62 84 104 100 103 104 113 113 100 76 71 73 107 115 112 88 130 95 67 48 11 24 357 353 337 339 357 354 359 358 35 65 77 86 73 66 61 65 72 75 77 78 75 73 73 72 72 72 70 66 63 61 60 59 58 56 54 51 48 46 43 40 38 36 31 25 21 17 14 13 12 10 7 6 1 357 358 356 353 350 347 343 340 337 336 323
244 273 162 195 223 192 238 263 50 292 24 60 88 101 110 111 115 107 108 108 109 92 85 90 85 85 60 68 99 104 40 24 52 13 7 8 1 4 2 7 1 17 53 81 81 78 72 67 68 67 66 67 66 68 68 66 65 62 61 64 64 61 60 59 59 57 53 48 48 46 43 42 40 39 34 31 28 23 20 17 16 13 11 8 4 0 355 354 354 348 344 339 336 331 330 329 325
231 211 283 242 240 186 240 172 191 95 87 37 94 105 125 129 123 110 91 86 96 101 111 129 112 79 119 78 77 60 40 17 18 20 9 8 4 358 6 13 10 1 69 77 76 73 70 69 64 60 63 66 67 66 67 67 64 61 60 59 60 60 56 55 55 53 50 50 48 46 43 41 39 37 32 28 25 21 20 18 15 12 9 13 12 9 7 5 358 354 350 348 346 341 334 329 323
242 197 188 225 239 221 190 224 115 45 99 101 82 89 101 112 91 98 115 93 82 78 67 58 80 105 109 86 104 34 22 11 4 13 9 4 359 3 19 19 12 33 63 70 73 72 71 66 62 58 56 61 65 67 68 66 64 59 55 53 53 48 44 41 41 41 43 44 45 45 44 42 41 38 34 29 24 20 20 19 17 16 15 14 16 13 10 9 5 359 356 357 355 352 346 343 336
207 176 315 249 224 215 206 157 130 105 90 108 107 117 92 104 107 88 81 90 76 66 38 70 75 95 87 79 70 78 46 17 14 4 349 3 8 16 22 24 24 36 49 45 49 65 71 70 63 54 51 50 47 46 50 55 54 52 50 52 52 51 46 41 39 36 36 38 41 42 42 41 38 38 34 27 21 16 14 13 13 14 17 19 19 17 15 13 10 8 5 2 0 355 351 344 340
199 202 171 231 227 223 191 145 139 115 109 95 85 93 128 116 104 107 100 90 79 64 50 354 121 114 79 84 59 45 32 11 4 339 332 356 17 20 26 29 36 38 39 37 39 39 49 49 57 64 58 53 47 43 43 51 50 45 43 44 46 49 46 42 40 38 32 28 30 31 35 37 40 42 37 33 27 18 16 13 8 6 11 13 11 13 11 10 10 10 8 6 2 359 355 346 338
245 176 206 245 226 245 157 150 131 127 127 93 106 125 108 121 124 115 96 81 65 60 26 351 161 90 91 54 91 55 21 353 335 324 321 351 58 25 38 44 40 45 32 32 40 29 35 46 49 52 57 60 55 48 39 42 54 56 52 46 45 47 45 40 35 35 33 26 21 10 12 28 35 48 49 45 37 28 22 16 11 11 9 10 6 0 359 360 358 356 355 354 351 349 346 344 336
244 192 192 230 270 261 211 134 134 142 105 124 55 35 24 51 73 84 83 66 42 57 60 7 50 92 96 125 78 35 2 324 321 319 318 324 81 59 50 48 48 43 35 35 37 31 31 23 33 42 48 50 48 47 46 44 46 48 47 44 43 41 40 35 28 25 20 13 1 348 339 346 34 47 56 51 48 34 27 21 16 12 12 10 5 359 357 358 357 353 350 347 343 338 333 331 332
244 300 206 232 245 256 196 154 156 135 126 128 95 76 70 46 62 71 76 96 54 3 144 42 341 271 155 147 94 2 308 306 306 307 314 311 351 79 68 61 57 48 37 35 38 37 32 24 26 31 33 46 49 50 45 45 51 51 49 44 44 42 38 31 25 22 11 356 353 337 326 332 61 44 44 48 53 36 28 22 13 9 12 9 1 358 352 355 356 349 344 341 337 334 327 320 320
284 353 254 205 232 234 229 133 161 116 135 128 98 90 73 56 47 64 36 70 105 40 45 23 19 50 50 70 12 300 292 292 299 298 283 291 50 55 55 52 53 51 44 35 35 36 33 32 28 37 36 40 47 47 46 40 41 44 40 31 25 29 31 27 24 20 12 2 354 359 9 360 31 40 32 15 11 45 23 16 7 3 11 7 2 358 346 355 348 344 344 342 336 330 324 319 314
238 304 273 211 224 228 234 152 165 147 127 122 136 96 95 85 72 69 71 65 74 58 65 43 57 53 57 67 6 293 288 284 270 248 228 117 67 52 45 43 43 46 40 35 32 26 28 31 30 34 36 39 40 34 30 27 31 37 34 28 25 24 32 30 27 21 15 3 357 4 19 13 9 38 23 7 353 29 27 11 14 10 17 10 2 7 10 11 355 1 4 359 344 333 324 321 316
180 212 217 197 248 221 304 221 148 130 131 139 140 106 104 101 101 112 81 65 75 74 70 69 64 62 60 46 354 313 288 297 20 61 65 60 49 57 55 45 44 43 33 30 23 23 22 26 30 32 31 35 34 31 27 29 27 27 27 30 30 24 28 31 28 25 16 6 357 3 19 5 6 31 17 8 18 14 13 13 18 20 15 14 1 14 7 12 5 9 5 2 359 360 349 352 352
188 248 232 178 229 49 34 100 122 128 130 136 117 115 100 110 123 124 92 69 69 68 56 57 63 43 29 19 358 345 348 34 43 60 68 65 57 55 51 49 43 41 37 28 25 25 21 20 28 32 25 21 41 40 33 31 34 27 15 17 23 25 24 28 28 29 19 7 4 360 14 358 7 28 18 18 23 17 7 9 16 17 11 11 358 15 5 11 8 11 7 6 3 0 360 2 353
226 231 191 334 36 76 97 115 119 126 133 125 124 109 100 102 85 81 90 90 56 48 30 31 38 24 12 8 356 355 18 42 43 52 59 58 56 54 51 49 48 39 37 27 23 25 27 22 23 33 29 17 29 40 35 35 38 30 24 17 14 22 22 21 24 29 25 11 9 357 352 4 14 20 18 16 15 18 5 5 12 16 9 8 1 12 358 3 3 6 7 5 359 356 356 356 350
150 260 212 161 140 72 68 96 111 117 120 114 108 104 89 80 94 97 122 83 55 63 42 49 45 27 7 12 2 11 32 41 42 44 49 49 53 53 55 54 51 45 30 30 34 27 25 28 21 28 32 24 18 32 37 34 33 41 31 20 20 21 18 21 19 22 28 15 8 0 358 13 19 14 17 15 15 14 9 6 11 11 7 6 1 12 360 358 2 5 1 0 357 352 352 355 354
134 358 341 67 98 88 83 92 99 99 94 99 88 83 102 65 42 60 66 98 99 51 48 47 51 39 12 15 28 30 44 44 43 45 45 45 42 48 49 57 55 45 28 37 33 27 25 27 26 27 26 24 23 28 39 33 32 32 32 26 23 24 22 20 17 16 22 21 9 4 0 14 18 15 14 18 17 15 11 9 9 6 6 7 360 6 358 357 2 8 358 358 354 347 346 352 351
158 14 275 91 80 94 79 87 91 104 104 93 94 85 79 76 80 56 66 68 93 77 74 58 57 41 23 33 43 52 50 49 45 49 50 46 41 43 48 49 46 39 32 38 27 33 23 26 28 29 32 24 26 26 34 44 35 30 30 32 27 24 22 22 20 16 16 20 12 7 6 14 16 15 14 19 18 11 13 7 8 8 7 6 0 3 358 357 0 1 359 349 352 344 343 349 348
173 105 84 82 92 96 100 86 79 78 86 91 98 92 86 102 86 58 72 66 71 75 74 68 66 53 32 44 50 60 60 55 57 57 55 56 50 46 41 46 43 45 44 36 28 23 23 27 31 25 34 37 24 27 39 40 41 33 30 31 30 24 22 25 22 19 16 18 12 7 4 18 16 16 11 19 15 12 13 8 7 7 9 5 2 2 358 353 360 358 357 345 352 345 341 348 346
132 120 109 97 89 89 85 90 89 88 80 86 80 75 71 73 99 83 64 65 71 59 59 78 78 69 49 47 43 54 63 59 61 70 70 64 67 58 48 50 47 37 43 38 32 20 23 30 33 34 24 40 33 27 41 37 36 33 32 29 28 17 28 21 20 21 24 13 11 7 9 14 20 15 9 9 13 14 8 10 7 7 7 6 4 358 0 352 358 1 356 344 343 344 340 347 345
118 110 102 94 91 92 93 88 88 93 98 95 83 89 99 106 85 60 74 72 53 53 47 53 75 71 60 59 51 40 51 54 57 56 57 58 47 47 43 43 43 42 37 39 29 27 13 29 30 37 23 28 44 33 34 40 31 36 34 31 22 22 23 20 17 28 24 18 12 5 7 8 19 17 6 357 17 11 7 4 10 5 8 359 8 1 349 355 351 355 355 347 340 342 342 342 346
111 110 105 101 102 101 96 101 103 102 98 104 101 97 74 16 114 89 58 102 97 50 41 41 69 61 59 63 68 49 58 52 36 39 57 53 44 44 30 28 43 46 31 32 30 16 15 22 29 33 30 14 40 47 35 40 35 39 34 32 21 26 21 25 23 23 37 32 16 6 7 6 8 11 11 359 5 17 11 5 5 3 3 353 1 356 340 344 350 346 343 344 335 335 330 337 341
117 113 102 99 100 94 103 103 106 108 85 99 98 82 62 36 51 82 92 96 105 80 63 41 59 77 69 60 61 61 56 38 34 34 45 48 41 39 37 17 13 40 31 28 24 16 20 19 32 24 35 16 24 42 41 36 35 37 36 31 23 19 29 27 24 20 30 40 24 16 11 10 11 6 2 4 357 12 15 13 4 10 354 341 352 360 342 345 355 339 330 338 332 327 321 325 327
123 109 99 109 108 102 103 108 114 108 120 126 111 81 41 25 76 83 98 101 123 121 96 68 58 92 109 97 66 52 54 54 43 28 22 48 44 31 43 25 11 21 29 23 19 30 21 9 31 28 31 26 29 29 38 39 35 32 38 33 14 20 22 27 25 20 18 23 33 18 17 12 10 10 359 358 6 2 10 18 12 4 348 337 349 353 349 348 352 343 336 339 336 333 327 321 319
112 97 119 103 83 57 355 90 110 113 147 162 329 85 42 53 86 109 125 144 141 113 105 86 96 69 25 25 97 84 68 68 53 34 23 17 37 34 34 21 22 19 23 20 9 32 26 4 6 31 27 33 25 26 33 33 28 28 35 32 18 16 23 30 23 19 17 22 25 21 16 15 13 4 2 351 9 3 4 12 14 358 341 335 349 345 350 354 353 345 337 342 338 338 332 323 324
124 123 111 130 108 79 324 175 140 126 136 321 306 112 121 101 107 103 142 160 144 103 104 106 56 117 125 55 36 27 42 61 68 70 65 31 23 33 23 30 16 14 20 23 20 17 44 14 1 28 14 40 32 19 16 23 36 40 29 24 20 9 28 29 23 19 23 19 23 22 9 19 12 5 356 354 357 3 6 357 10 354 334 333 345 340 344 353 356 343 336 339 333 329 326 321 322
136 132 138 142 121 136 2 10 77 141 187 260 18 85 127 134 116 131 110 134 134 118 122 122 120 74 135 142 133 131 98 68 43 44 18 38 26 18 27 26 21 11 14 5 9 16 46 31 11 23 16 24 42 37 23 17 22 26 38 23 26 8 21 35 20 22 26 24 33 16 360 17 12 5 357 353 357 353 5 360 349 357 337 334 339 337 347 347 355 345 334 336 336 329 327 327 323
175 165 146 136 108 139 104 358 9 320 162 177 86 122 116 104 136 116 157 172 169 129 129 119 135 131 90 100 112 143 149 134 113 70 62 38 31 4 39 12 19 22 13 13 3 2 27 25 33 12 14 19 26 17 17 27 32 20 36 20 29 34 9 14 25 18 27 31 24 18 354 2 18 5 357 354 353 347 346 8 338 352 334 332 337 335 346 341 355 342 330 330 337 320 324 322 321
188 169 148 115 131 140 113 47 308 224 130 71 86 114 95 113 130 134 137 217 188 138 134 128 127 153 95 95 126 105 106 103 79 74 57 39 22 12 34 34 23 353 22 36 9 4 14 12 47 7 359 11 51 46 359 1 11 35 42 37 16 50 51 16 359 33 17 42 21 2 1 347 21 359 356 351 349 342 336 343 338 336 333 330 337 335 331 333 339 333 322 321 327 321 320 324 318
176 168 132 111 113 121 126 142 207 159 81 91 80 81 110 119 121 131 160 148 246 141 130 137 135 117 169 173 127 103 103 99 92 69 26 48 37 18 14 37 63 339 33 27 39 7 15 12 14 15 360 357 2 39 278 267 236 159 144 114 57 43 43 36 21 17 26 44 23 341 9 343 18 344 349 341 342 336 329 326 339 320 336 328 334 329 328 323 321 318 318 315 318 310 314 315 313
185 141 116 120 121 126 135 118 155 111 107 108 106 122 123 125 126 141 151 183 191 128 114 103 75 100 155 182 124 123 109 90 82 86 15 18 35 9 8 11 54 28 3 24 52 14 16 35 20 30 15 359 321 340 13 350 351 355 7 316 106 69 52 30 360 59 352 61 11 337 343 325 14 320 318 336 325 325 321 317 318 317 320 324 327 328 322 319 313 318 310 314 315 311 313 310 312
178 105 117 120 115 108 114 129 131 107 87 69 101 109 114 121 140 151 165 177 202 154 174 156 171 214 194 174 149 126 125 95 99 123 132 326 38 48 24 351 336 126 30 17 32 28 20 11 27 25 4 21 23 10 2 11 17 350 349 26 350 357 10 277 245 175 233 110 343 293 309 287 310 294 292 319 304 307 304 303 307 309 311 315 318 307 302 303 304 302 302 309 312 316 316 310 308
134 116 112 102 107 112 102 92 59 19 105 104 107 103 100 113 130 155 165 181 189 185 190 182 177 189 193 186 135 171 112 115 165 170 172 183 68 312 159 188 339 15 19 19 27 20 8 18 30 16 21 10 46 17 344 18 24 65 287 303 355 311 358 346 327 342 339 258 224 226 259 271 265 267 265 264 280 283 287 292 296 298 306 304 298 294 296 297 301 305 308 311 284 305 306 316 314
107 112 108 105 104 101 92 91 90 92 93 114 111 97 100 111 127 158 179 195 194 190 201 197 185 182 193 182 171 148 126 161 173 164 147 145 170 218 223 167 200 360 34 13 19 331 356 39 39 3 47 4 42 40 353 11 336 355 7 295 318 305 267 212 236 253 262 272 263 239 232 247 246 258 267 262 261 264 262 272 283 282 290 293 301 295 287 291 289 296 307 302 307 272 288 310 316
102 115 115 122 134 129 129 119 128 108 92 135 125 97 98 101 118 172 198 222 161 135 329 349 344 236 188 189 181 179 178 156 179 181 187 184 175 190 195 205 170 161 267 216 129 344 305 60 59 349 345 29 6 70 328 295 276 264 280 263 270 231 257 302 259 248 250 255 259 240 226 226 238 249 255 256 256 257 260 263 264 272 274 277 274 280 283 282 293 299 298 296 300 308 312 300 309
74 102 115 121 150 93 107 128 102 86 79 116 109 85 97 142 177 183 228 242 273 206 220 250 227 262 301 35 28 337 220 169 182 173 195 187 185 204 192 194 151 200 208 211 215 268 112 286 181 42 286 310 209 165 310 311 299 285 268 270 268 302 309 289 295 286 245 241 256 269 250 224 230 242 246 248 248 251 255 255 254 258 265 265 265 268 274 274 277 278 284 293 299 296 303 294 296
95 88 120 133 116 114 117 126 112 94 111 181 76 96 285 165 206 203 173 199 230 218 207 219 216 211 212 226 217 191 212 275 189 192 187 201 205 199 190 157 182 218 227 196 181 238 256 251 200 214 274 248 226 233 248 315 310 311 309 333 328 316 306 317 292 282 307 301 277 260 278 270 255 248 245 244 246 247 251 250 249 255 260 266 260 259 267 277 278 279 275 273 285 279 285 301 296
109 149 135 120 116 119 140 127 106 115 140 157 44 111 154 104 214 199 187 192 221 209 214 220 215 210 196 209 203 196 189 194 215 244 214 187 207 211 201 186 196 207 221 172 182 215 227 240 235 220 247 270 201 231 288 285 288 275 275 278 271 275 276 274 264 295 299 278 273 279 274 279 267 259 257 245 241 241 242 248 249 250 253 256 261 263 268 267 267 265 269 277 272 280 287 287 287
85 127 119 128 127 139 160 127 86 84 61 28 4 188 103 171 229 193 188 204 205 217 215 215 219 208 204 198 202 201 194 189 181 205 216 212 208 202 209 201 195 201 201 164 195 213 219 214 216 213 230 247 232 189 224 223 259 277 280 263 261 255 248 255 271 275 271 274 281 275 270 265 265 258 258 253 245 240 239 246 245 247 249 253 255 256 259 263 267 268 265 266 270 263 262 265 285
131 135 139 138 142 160 134 92 107 130 138 97 218 230 40 175 155 160 177 207 223 222 218 210 207 209 204 201 194 199 204 187 182 193 207 207 210 206 206 203 190 192 174 180 202 214 215 217 217 212 238 250 254 214 210 231 228 249 262 268 277 264 261 270 282 281 274 272 274 275 270 263 262 261 256 254 250 243 238 240 242 245 246 250 250 255 258 258 263 272 276 273 262 259 248 260 274
138 141 131 137 145 140 110 110 110 141 126 155 101 41 89 44 119 151 173 229 237 229 217 209 201 204 199 188 194 198 200 189 192 197 200 205 196 200 198 198 200 196 180 189 205 213 216 201 206 220 237 233 239 237 212 219 228 238 252 255 258 272 277 283 286 282 283 283 277 276 272 270 264 265 262 254 254 244 238 237 238 240 242 244 246 246 254 266 268 264 259 256 258 266 263 263 266
137 137 128 130 136 133 101 115 125 93 151 142 4 54 89 214 213 183 152 211 212 202 205 210 204 196 185 180 185 194 194 192 194 204 202 196 190 189 178 203 214 196 187 195 209 210 210 205 216 229 232 230 233 234 220 224 223 225 240 247 251 263 270 274 281 280 275 278 272 273 275 272 271 269 268 267 257 257 252 245 244 243 243 246 251 257 260 259 260 261 269 276 277 276 278 269 268
134 138 138 125 92 105 83 90 155 107 152 308 353 48 14 91 290 212 217 219 180 186 203 198 197 199 178 173 182 187 193 192 194 194 200 195 191 191 187 210 211 215 202 203 211 204 205 214 217 234 241 233 235 237 233 233 225 232 235 242 251 253 260 264 265 270 270 270 270 275 274 279 276 274 276 276 275 270 263 259 253 257 258 261 261 258 262 267 276 284 288 285 282 277 275 276 273
158 144 142 135 129 130 129 154 137 201 160 194 296 354 4 251 287 196 166 162 163 163 59 11 200 178 150 161 174 190 193 189 186 189 192 196 197 194 204 215 213 219 220 213 202 197 205 213 218 228 246 232 234 235 234 239 232 233 230 236 243 248 250 251 255 262 268 271 274 277 284 282 285 289 281 283 280 278 277 277 279 279 283 280 281 285 282 282 283 283 281 282 279 279 275 271 271
149 154 158 120 144 153 137 169 108 53 306 340 58 322 175 341 343 9 82 25 41 62 67 69 51 47 74 140 181 188 189 189 189 189 193 192 192 204 207 210 211 215 218 213 209 200 204 211 216 222 244 237 236 237 238 241 237 233 228 232 239 242 248 249 253 259 267 267 271 278 281 284 288 286 292 288 287 286 287 285 293 295 293 296 294 290 288 286 284 283 284 282 280 274 271 267 266
347 138 111 267 51 143 140 163 148 148 156 218 279 82 238 135 238 69 96 79 80 72 82 101 56 68 120 93 18 94 182 188 175 171 177 184 203 206 214 215 214 212 207 206 207 210 208 218 218 227 244 247 237 237 237 238 241 240 237 235 241 242 249 255 257 258 268 278 282 285 287 288 289 292 292 294 300 305 306 310 307 307 303 298 296 294 290 286 285 286 282 281 279 275 272 271 270
265 142 230 66 146 271 104 96 107 128 105 61 332 200 109 140 191 102 94 74 34 75 78 58 50 147 115 100 183 117 44 122 119 144 183 219 220 221 217 211 214 215 217 219 218 216 215 223 222 227 232 241 237 238 234 231 236 236 237 243 245 249 256 262 276 281 281 279 284 287 291 292 294 298 303 309 312 314 311 305 301 296 296 295 291 289 288 289 289 289 286 282 281 277 277 275 275
231 360 42 235 247 101 117 24 44 85 83 17 224 312 15 62 79 166 199 135 191 109 36 21 266 189 118 222 266 232 202 195 179 183 197 221 228 227 213 215 223 226 225 225 229 222 224 231 232 242 243 243 243 240 242 238 242 243 250 250 261 271 278 285 286 293 295 297 298 298 298 298 304 309 308 313 309 306 301 300 301 301 300 296 293 291 291 292 292 289 287 285 283 282 278 278 280
2 83 227 47 82 117 117 133 281 95 137 232 116 217 175 104 301 198 193 170 164 179 194 162 167 117 180 219 219 208 214 202 194 194 199 205 212 215 219 222 222 228 232 240 242 237 231 230 231 240 246 249 252 254 260 266 273 284 291 291 289 285 290 292 295 293 294 298 297 296 300 306 302 301 301 298 301 304 309 311 309 304 299 297 294 295 296 294 293 289 287 285 285 287 285 284 282
113 160 164 82 86 82 308 87 104 129 65 185 260 227 318 188 251 198 216 141 141 120 147 175 169 201 213 221 205 186 180 179 197 223 226 225 222 234 240 248 248 243 243 242 252 254 255 254 247 237 252 258 265 273 281 286 283 273 267 266 267 280 282 280 279 281 291 294 294 295 295 292 297 299 303 305 307 308 307 305 303 300 300 299 299 298 298 296 294 294 292 290 287 287 288 289 289
41 59 44 227 67 44 102 181 177 106 158 96 302 52 245 345 91 134 97 72 58 63 56 56 48 56 38 37 35 29 46 143 204 218 233 235 243 247 259 272 293 291 300 300 299 308 293 284 288 286 283 281 282 278 269 266 260 250 263 275 284 274 275 276 280 293 301 296 292 296 299 303 295 302 305 307 307 305 304 303 303 300 301 303 303 302 300 297 295 288 289 289 291 291 291 292 294
345 12 16 14 31 207 142 53 82 134 162 146 135 301 255 297 315 42 75 74 73 76 83 58 56 58 70 72 56 34 354 11 355 5 5 358 359 356 346 349 340 332 326 311 298 281 274 281 286 284 280 284 281 272 273 266 270 275 273 278 279 291 293 295 303 302 297 291 292 295 298 293 311 312 308 308 308 306 305 303 304 305 305 305 304 302 298 293 290 291 290 292 295 296 296 297 299
72 78 87 206 358 18 49 301 115 53 84 171 117 206 336 269 343 49 99 85 102 80 69 52 23 47 79 91 91 151 360 349 12 354 4 337 335 333 334 342 343 339 319 308 293 288 283 275 257 257 263 259 258 272 257 259 261 264 276 285 294 299 299 302 305 301 300 297 302 309 308 323 317 304 311 308 307 305 306 309 309 307 305 302 299 298 298 297 298 298 298 298 299 301 302 302 304